| time (UTC) | temp F | wind direction | speed MPH | gust MPH | rain 1hr in | rain 24hr in | rain mn in | humidity % | barometer mb |
| 20260902230007 | 87 | 290 | 1.0 | 4.0 | 0.00 | 0.01 | 0.01 | 71 | 1015.2 |
| 20260902224508 | 88 | 287 | 1.0 | 3.0 | 0.00 | 0.01 | 0.01 | 70 | 1015.2 |
| 20260902223015 | 88 | 279 | 0.0 | 2.0 | 0.00 | 0.01 | 0.01 | 68 | 1015.2 |
| 20260902221524 | 89 | 252 | 1.0 | 3.0 | 0.00 | 0.01 | 0.01 | 64 | 1015.3 |
| 20260902220033 | 91 | 269 | 1.0 | 4.0 | 0.00 | 0.01 | 0.01 | 60 | 1015.2 |
| 20260902214516 | 91 | 185 | 1.0 | 3.0 | 0.00 | 0.01 | 0.01 | 60 | 1015.4 |
| 20260902213013 | 92 | 274 | 0.0 | 2.0 | 0.00 | 0.01 | 0.01 | 60 | 1015.5 |
| 20260902211516 | 92 | 300 | 2.0 | 5.0 | 0.00 | 0.01 | 0.01 | 59 | 1015.6 |
| 20260902210022 | 92 | 122 | 1.0 | 6.0 | 0.00 | 0.01 | 0.01 | 58 | 1015.8 |
| 20260902204527 | 92 | 319 | 0.0 | 4.0 | 0.00 | 0.01 | 0.01 | 59 | 1015.8 |
| 20260902203006 | 92 | 252 | 2.0 | 6.0 | 0.00 | 0.01 | 0.01 | 58 | 1016.0 |
| 20260902201513 | 93 | 35 | 1.0 | 5.0 | 0.00 | 0.01 | 0.01 | 58 | 1016.2 |
| 20260902200022 | 93 | 257 | 0.0 | 4.0 | 0.00 | 0.01 | 0.01 | 60 | 1016.2 |
| 20260902194537 | 93 | 259 | 1.0 | 4.0 | 0.00 | 0.01 | 0.01 | 57 | 1016.4 |
| 20260902193026 | 93 | 80 | 1.0 | 4.0 | 0.00 | 0.01 | 0.01 | 63 | 1016.5 |
| 20260902191509 | 93 | 273 | 2.0 | 5.0 | 0.00 | 0.01 | 0.01 | 57 | 1016.7 |
| 20260902190015 | 92 | 144 | 1.0 | 5.0 | 0.00 | 0.01 | 0.01 | 62 | 1016.8 |
| 20260902184525 | 92 | 264 | 1.0 | 5.0 | 0.00 | 0.01 | 0.01 | 64 | 1016.8 |
| 20260902183028 | 92 | 252 | 1.0 | 4.0 | 0.00 | 0.01 | 0.01 | 62 | 1016.9 |
| 20260902181531 | 92 | 282 | 1.0 | 3.0 | 0.00 | 0.01 | 0.01 | 64 | 1017.1 |
| 20260902180033 | 91 | 253 | 1.0 | 4.0 | 0.00 | 0.01 | 0.01 | 65 | 1017.4 |
| 20260902174515 | 90 | 254 | 0.0 | 5.0 | 0.00 | 0.01 | 0.01 | 68 | 1017.6 |
| 20260902173032 | 89 | 256 | 1.0 | 5.0 | 0.00 | 0.01 | 0.01 | 68 | 1017.7 |
| 20260902171526 | 90 | 244 | 0.0 | 4.0 | 0.00 | 0.01 | 0.01 | 68 | 1017.7 |
| 20260902170030 | 90 | 321 | 1.0 | 6.0 | 0.00 | 0.01 | 0.01 | 67 | 1017.9 |
| 20260902164531 | 89 | 248 | 1.0 | 3.0 | 0.00 | 0.01 | 0.01 | 68 | 1017.9 |
| 20260902163013 | 88 | 276 | 1.0 | 3.0 | 0.00 | 0.01 | 0.01 | 70 | 1018.0 |
| 20260902161533 | 89 | 281 | 1.0 | 4.0 | 0.00 | 0.01 | 0.01 | 68 | 1018.1 |
| 20260902160027 | 88 | 272 | 1.0 | 4.0 | 0.00 | 0.01 | 0.01 | 66 | 1018.2 |
| 20260902154531 | 87 | 119 | 0.0 | 2.0 | 0.00 | 0.01 | 0.01 | 70 | 1018.3 |
| 20260902153031 | 87 | 255 | 1.0 | 3.0 | 0.00 | 0.01 | 0.01 | 70 | 1018.3 |
| 20260902151524 | 86 | 249 | 0.0 | 4.0 | 0.00 | 0.01 | 0.01 | 73 | 1018.2 |
| 20260902150023 | 86 | 255 | 1.0 | 2.0 | 0.00 | 0.01 | 0.01 | 71 | 1018.3 |
| 20260902144526 | 85 | 231 | 0.0 | 3.0 | 0.00 | 0.01 | 0.01 | 73 | 1018.1 |
| 20260902143029 | 84 | 266 | 0.0 | 4.0 | 0.00 | 0.01 | 0.01 | 76 | 1018.2 |
| 20260902141538 | 83 | 264 | 0.0 | 2.0 | 0.00 | 0.01 | 0.01 | 78 | 1018.2 |
| 20260902140020 | 80 | 262 | 0.0 | 3.0 | 0.00 | 0.01 | 0.01 | 82 | 1018.1 |
| 20260902134535 | 80 | 293 | 0.0 | 4.0 | 0.00 | 0.01 | 0.01 | 82 | 1017.9 |
| 20260902133033 | 80 | 243 | 0.0 | 2.0 | 0.00 | 0.01 | 0.01 | 84 | 1018.1 |
| 20260902131538 | 78 | 239 | 0.0 | 3.0 | 0.00 | 0.01 | 0.01 | 85 | 1018.1 |
| 20260902130034 | 77 | 270 | 1.0 | 2.0 | 0.00 | 0.01 | 0.01 | 88 | 1018.1 |
| 20260902124523 | 75 | 266 | 0.0 | 2.0 | 0.00 | 0.01 | 0.01 | 92 | 1018.0 |
| 20260902123006 | 73 | 267 | 0.0 | 1.0 | 0.00 | 0.01 | 0.01 | 93 | 1018.1 |
| 20260902121509 | 73 | 266 | 0.0 | 1.0 | 0.00 | 0.01 | 0.01 | 93 | 1018.0 |
| 20260902120014 | 73 | 266 | 0.0 | 2.0 | 0.00 | 0.01 | 0.01 | 94 | 1017.8 |
| 20260902114519 | 72 | 293 | 0.0 | 1.0 | 0.00 | 0.01 | 0.01 | 95 | 1017.8 |
| 20260902113026 | 71 | 293 | 0.0 | 1.0 | 0.01 | 0.01 | 0.01 | 96 | 1017.6 |
| 20260902111504 | 71 | 293 | 0.0 | 0.0 | 0.01 | 0.01 | 0.01 | 95 | 1017.3 |
| 20260902110025 | 72 | 293 | 0.0 | 1.0 | 0.01 | 0.01 | 0.01 | 95 | 1017.1 |
| 20260902104538 | 72 | 293 | 0.0 | 1.0 | 0.01 | 0.01 | 0.01 | 95 | 1017.1 |
| 20260902103023 | 72 | 274 | 0.0 | 3.0 | 0.00 | 0.00 | 0.00 | 96 | 1017.1 |
| 20260902101530 | 72 | 291 | 0.0 | 2.0 | 0.00 | 0.00 | 0.00 | 96 | 1017.0 |
| 20260902100005 | 72 | 289 | 0.0 | 1.0 | 0.00 | 0.00 | 0.00 | 96 | 1017.2 |
| 20260902094513 | 72 | 289 | 0.0 | 1.0 | 0.00 | 0.00 | 0.00 | 96 | 1017.1 |
| 20260902093021 | 72 | 271 | 0.0 | 2.0 | 0.00 | 0.00 | 0.00 | 96 | 1017.2 |
| 20260902091523 | 72 | 259 | 0.0 | 2.0 | 0.00 | 0.00 | 0.00 | 97 | 1017.1 |
| 20260902090030 | 72 | 280 | 0.0 | 2.0 | 0.00 | 0.00 | 0.00 | 97 | 1017.2 |
| 20260902084509 | 72 | 269 | 0.0 | 1.0 | 0.00 | 0.00 | 0.00 | 96 | 1017.3 |
| 20260902083014 | 72 | 269 | 0.0 | 1.0 | 0.00 | 0.00 | 0.00 | 96 | 1017.2 |
| 20260902081518 | 72 | 269 | 0.0 | 0.0 | 0.00 | 0.00 | 0.00 | 96 | 1017.1 |
| 20260902080025 | 72 | 269 | 0.0 | 1.0 | 0.00 | 0.00 | 0.00 | 97 | 1017.0 |
| 20260902074530 | 72 | 269 | 0.0 | 0.0 | 0.00 | 0.00 | 0.00 | 97 | 1017.0 |
| 20260902073007 | 72 | 269 | 0.0 | 1.0 | 0.00 | 0.00 | 0.00 | 97 | 1017.1 |
| 20260902071526 | 71 | 243 | 0.0 | 0.0 | 0.00 | 0.00 | 0.00 | 96 | 1017.1 |
| 20260902070021 | 71 | 243 | 0.0 | 0.0 | 0.00 | 0.00 | 0.00 | 96 | 1017.1 |
| 20260902064528 | 71 | 244 | 0.0 | 0.0 | 0.00 | 0.00 | 0.00 | 96 | 1017.1 |
| 20260902063035 | 71 | 243 | 0.0 | 0.0 | 0.00 | 0.00 | 0.00 | 96 | 1017.3 |
| 20260902061511 | 71 | 243 | 0.0 | 0.0 | 0.00 | 0.00 | 0.00 | 96 | 1017.3 |
| 20260902060018 | 71 | 243 | 0.0 | 0.0 | 0.00 | 0.00 | 0.00 | 96 | 1017.2 |
| 20260902054525 | 72 | 243 | 0.0 | 0.0 | 0.00 | 0.00 | 0.00 | 96 | 1017.1 |
| 20260902053031 | 72 | 243 | 0.0 | 0.0 | 0.00 | 0.00 | 0.00 | 96 | 1017.1 |
| 20260902051531 | 72 | 244 | 0.0 | 0.0 | 0.00 | 0.00 | 0.00 | 96 | 1016.9 |
| 20260902050019 | 73 | 243 | 0.0 | 0.0 | 0.00 | 0.00 | 0.00 | 96 | 1016.7 |
| 20260902044535 | 73 | 244 | 0.0 | 1.0 | 0.00 | 0.00 | 0.00 | 96 | 1016.6 |
| 20260902043027 | 72 | 243 | 0.0 | 0.0 | 0.00 | 0.00 | 0.00 | 96 | 1016.7 |
| 20260902041537 | 72 | 243 | 0.0 | 0.0 | 0.00 | 0.00 | 0.00 | 96 | 1016.8 |
| 20260902040035 | 72 | 243 | 0.0 | 0.0 | 0.00 | 0.00 | 0.00 | 95 | 1016.7 |
| 20260902034518 | 73 | 243 | 0.0 | 0.0 | 0.00 | 0.00 | 0.00 | 96 | 1016.7 |
| 20260902033024 | 72 | 243 | 0.0 | 0.0 | 0.00 | 0.00 | 0.00 | 95 | 1016.8 |
| 20260902031538 | 73 | 243 | 0.0 | 0.0 | 0.00 | 0.00 | 0.00 | 95 | 1016.8 |
| 20260902030027 | 73 | 243 | 0.0 | 0.0 | 0.00 | 0.00 | 0.00 | 95 | 1016.7 |
| 20260902024533 | 73 | 243 | 0.0 | 0.0 | 0.00 | 0.00 | 0.00 | 95 | 1016.7 |
| 20260902023015 | 73 | 243 | 0.0 | 0.0 | 0.00 | 0.00 | 0.00 | 95 | 1016.8 |
| 20260902021537 | 73 | 244 | 0.0 | 0.0 | 0.00 | 0.00 | 0.00 | 95 | 1016.6 |
| 20260902020033 | 74 | 243 | 0.0 | 0.0 | 0.00 | 0.00 | 0.00 | 94 | 1016.5 |
| 20260902014545 | 74 | 243 | 0.0 | 0.0 | 0.00 | 0.00 | 0.00 | 94 | 1016.3 |
| 20260902013032 | 74 | 243 | 0.0 | 0.0 | 0.00 | 0.00 | 0.00 | 93 | 1016.1 |
| 20260902011521 | 75 | 243 | 0.0 | 0.0 | 0.00 | 0.00 | 0.00 | 93 | 1016.3 |
| 20260902010027 | 75 | 243 | 0.0 | 0.0 | 0.00 | 0.00 | 0.00 | 92 | 1016.1 |
| 20260902004527 | 76 | 243 | 0.0 | 0.0 | 0.00 | 0.00 | 0.00 | 91 | 1015.7 |
| 20260902003033 | 76 | 243 | 0.0 | 0.0 | 0.00 | 0.00 | 0.00 | 90 | 1015.6 |
| 20260902001529 | 77 | 243 | 0.0 | 1.0 | 0.00 | 0.00 | 0.00 | 89 | 1015.8 |
| 20260902000010 | 77 | 243 | 0.0 | 0.0 | 0.00 | 0.00 | 0.00 | 88 | 1016.0 |
| 20260901234509 | 78 | 243 | 0.0 | 0.0 | 0.00 | 0.00 | 0.00 | 87 | 1016.3 |
| 20260901233003 | 78 | 243 | 0.0 | 1.0 | 0.00 | 0.00 | 0.00 | 86 | 1016.5 |
| 20260901231512 | 79 | 243 | 0.0 | 1.0 | 0.00 | 0.00 | 0.00 | 85 | 1016.8 |